Volver al catálogo

NOAA 16 DEB

ActivoPO
NORAD 42358·DEBRIS·🇺🇸 United States

Lanzado Sep 21, 2000 desde Vandenberg Space Force Base

Loading…

Próximos Pases (próximas 24 horas)

TLE

ActualizadoSource: Space-Track

Época: Sep 13, 2026, 16:11 UTC

1 42358U 00055RA  26256.67441883  .00015560  00000-0  26600-2 0  9997
2 42358  98.8489  46.9425 0022595  44.8098 315.4924 14.68803447514054

Sigue NOAA 16 DEB en tiempo real con AllMySat

Download on the App Store